Year,Month,Day,Hour,Minute,Value (Times are PST for windgust in km/hr)
2010,05,06,00,00,3.20
2010,05,06,00,01,1.60
2010,05,06,00,02,1.60
2010,05,06,00,03,1.60
2010,05,06,00,05,3.20
2010,05,06,00,06,6.40
2010,05,06,00,07,4.80
2010,05,06,00,10,3.20
2010,05,06,00,11,3.20
2010,05,06,00,12,3.20
2010,05,06,00,13,1.60
2010,05,06,00,15,1.60
2010,05,06,00,21,3.20
2010,05,06,00,24,1.60
2010,05,06,00,31,6.40
2010,05,06,00,32,11.30
2010,05,06,00,33,1.60
2010,05,06,00,34,3.20
2010,05,06,00,35,1.60
2010,05,06,00,36,1.60
2010,05,06,00,38,1.60
2010,05,06,00,48,1.60
2010,05,06,00,49,6.40
2010,05,06,00,50,9.60
2010,05,06,00,51,1.60
2010,05,06,00,52,6.40
2010,05,06,00,53,9.60
2010,05,06,00,54,1.60
2010,05,06,00,55,1.60
2010,05,06,00,56,1.60
2010,05,06,00,57,3.20
2010,05,06,00,58,3.20
2010,05,06,00,59,1.60
2010,05,06,01,06,3.20
2010,05,06,01,10,1.60
2010,05,06,01,11,1.60
2010,05,06,01,17,1.60
2010,05,06,01,19,1.60
2010,05,06,01,20,3.20
2010,05,06,01,23,3.20
2010,05,06,01,24,1.60
2010,05,06,01,25,3.20
2010,05,06,01,26,9.60
2010,05,06,01,27,8.10
2010,05,06,01,28,6.40
2010,05,06,01,30,1.60
2010,05,06,01,31,1.60
2010,05,06,01,32,1.60
2010,05,06,01,34,1.60
2010,05,06,01,35,4.80
2010,05,06,01,36,1.60
2010,05,06,01,37,3.20
2010,05,06,01,38,1.60
2010,05,06,01,46,1.60
2010,05,06,01,51,1.60
2010,05,06,01,52,3.20
2010,05,06,01,53,3.20
2010,05,06,01,54,1.60
2010,05,06,01,56,1.60
2010,05,06,02,06,3.20
2010,05,06,02,07,3.20
2010,05,06,02,08,1.60
2010,05,06,02,14,1.60
2010,05,06,02,15,1.60
2010,05,06,02,17,1.60
2010,05,06,02,19,6.40
2010,05,06,02,20,3.20
2010,05,06,02,21,1.60
2010,05,06,02,23,1.60
2010,05,06,02,24,4.80
2010,05,06,02,26,3.20
2010,05,06,02,28,1.60
2010,05,06,02,30,3.20
2010,05,06,02,31,3.20
2010,05,06,02,32,4.80
2010,05,06,02,33,3.20
2010,05,06,02,34,1.60
2010,05,06,02,35,4.80
2010,05,06,02,36,1.60
2010,05,06,02,38,1.60
2010,05,06,02,39,4.80
2010,05,06,02,40,1.60
2010,05,06,02,41,3.20
2010,05,06,02,42,3.20
2010,05,06,02,43,3.20
2010,05,06,02,44,3.20
2010,05,06,02,45,11.30
2010,05,06,02,46,4.80
2010,05,06,02,47,6.40
2010,05,06,02,48,6.40
2010,05,06,02,49,3.20
2010,05,06,02,50,6.40
2010,05,06,02,51,11.30
2010,05,06,02,52,6.40
2010,05,06,02,53,9.60
2010,05,06,02,54,6.40
2010,05,06,02,55,9.60
2010,05,06,02,56,8.10
2010,05,06,02,57,8.10
2010,05,06,02,58,3.20
2010,05,06,02,59,9.60
2010,05,06,03,00,3.20
2010,05,06,03,01,6.40
2010,05,06,03,02,4.80
2010,05,06,03,03,8.10
2010,05,06,03,04,6.40
2010,05,06,03,05,8.10
2010,05,06,03,06,8.10
2010,05,06,03,07,8.10
2010,05,06,03,08,20.90
2010,05,06,03,09,9.60
2010,05,06,03,10,6.40
2010,05,06,03,11,4.80
2010,05,06,03,12,8.10
2010,05,06,03,13,14.50
2010,05,06,03,14,9.60
2010,05,06,03,15,9.60
2010,05,06,03,16,11.30
2010,05,06,03,17,8.10
2010,05,06,03,18,8.10
2010,05,06,03,19,9.60
2010,05,06,03,20,6.40
2010,05,06,03,21,8.10
2010,05,06,03,22,9.60
2010,05,06,03,23,14.50
2010,05,06,03,24,14.50
2010,05,06,03,25,11.30
2010,05,06,03,26,9.60
2010,05,06,03,27,9.60
2010,05,06,03,28,11.30
2010,05,06,03,29,11.30
2010,05,06,03,30,8.10
2010,05,06,03,31,6.40
2010,05,06,03,32,3.20
2010,05,06,03,33,8.10
2010,05,06,03,34,6.40
2010,05,06,03,35,6.40
2010,05,06,03,36,4.80
2010,05,06,03,37,1.60
2010,05,06,03,38,1.60
2010,05,06,03,39,1.60
2010,05,06,03,40,4.80
2010,05,06,03,44,1.60
2010,05,06,03,54,1.60
2010,05,06,04,17,1.60
2010,05,06,04,19,3.20
2010,05,06,04,20,3.20
2010,05,06,04,27,1.60
2010,05,06,04,39,1.60
2010,05,06,04,41,3.20
2010,05,06,04,43,1.60
2010,05,06,04,55,3.20
2010,05,06,05,01,1.60
2010,05,06,05,02,1.60
2010,05,06,05,03,1.60
2010,05,06,05,40,1.60
2010,05,06,05,41,1.60
2010,05,06,06,12,1.60
2010,05,06,06,13,4.80
2010,05,06,06,14,1.60
2010,05,06,06,17,1.60
2010,05,06,06,28,1.60
2010,05,06,07,36,1.60
2010,05,06,07,42,1.60
2010,05,06,07,43,1.60
2010,05,06,07,52,1.60
2010,05,06,07,58,1.60
2010,05,06,08,00,1.60
2010,05,06,08,01,1.60
2010,05,06,08,04,1.60
2010,05,06,08,06,1.60
2010,05,06,08,07,1.60
2010,05,06,08,12,1.60
2010,05,06,08,13,3.20
2010,05,06,08,14,1.60
2010,05,06,08,15,3.20
2010,05,06,08,16,3.20
2010,05,06,08,17,1.60
2010,05,06,08,18,1.60
2010,05,06,08,19,4.80
2010,05,06,08,20,4.80
2010,05,06,08,21,3.20
2010,05,06,08,22,3.20
2010,05,06,08,23,3.20
2010,05,06,08,24,4.80
2010,05,06,08,25,3.20
2010,05,06,08,27,1.60
2010,05,06,08,28,1.60
2010,05,06,08,33,1.60
2010,05,06,08,36,4.80
2010,05,06,08,37,4.80
2010,05,06,08,38,4.80
2010,05,06,08,39,3.20
2010,05,06,08,40,3.20
2010,05,06,08,41,1.60
2010,05,06,08,42,4.80
2010,05,06,08,43,4.80
2010,05,06,08,44,4.80
2010,05,06,08,45,4.80
2010,05,06,08,46,3.20
2010,05,06,08,47,4.80
2010,05,06,08,48,4.80
2010,05,06,08,49,4.80
2010,05,06,08,50,3.20
2010,05,06,08,51,4.80
2010,05,06,08,52,4.80
2010,05,06,08,53,3.20
2010,05,06,08,54,3.20
2010,05,06,08,55,4.80
2010,05,06,08,56,3.20
2010,05,06,08,57,4.80
2010,05,06,08,58,4.80
2010,05,06,08,59,4.80
2010,05,06,09,00,4.80
2010,05,06,09,01,4.80
2010,05,06,09,02,8.10
2010,05,06,09,03,3.20
2010,05,06,09,04,3.20
2010,05,06,09,05,9.60
2010,05,06,09,06,3.20
2010,05,06,09,07,8.10
2010,05,06,09,08,6.40
2010,05,06,09,09,6.40
2010,05,06,09,10,6.40
2010,05,06,09,11,8.10
2010,05,06,09,12,6.40
2010,05,06,09,13,6.40
2010,05,06,09,14,1.60
2010,05,06,09,15,6.40
2010,05,06,09,16,8.10
2010,05,06,09,17,11.30
2010,05,06,09,18,8.10
2010,05,06,09,19,6.40
2010,05,06,09,20,9.60
2010,05,06,09,21,6.40
2010,05,06,09,22,3.20
2010,05,06,09,23,6.40
2010,05,06,09,24,4.80
2010,05,06,09,25,4.80
2010,05,06,09,26,3.20
2010,05,06,09,27,6.40
2010,05,06,09,28,3.20
2010,05,06,09,29,3.20
2010,05,06,09,30,6.40
2010,05,06,09,31,1.60
2010,05,06,09,32,1.60
2010,05,06,09,33,3.20
2010,05,06,09,34,3.20
2010,05,06,09,35,4.80
2010,05,06,09,36,4.80
2010,05,06,09,37,3.20
2010,05,06,09,38,1.60
2010,05,06,09,39,1.60
2010,05,06,09,40,1.60
2010,05,06,09,42,1.60
2010,05,06,09,43,4.80
2010,05,06,09,44,4.80
2010,05,06,09,45,6.40
2010,05,06,09,46,6.40
2010,05,06,09,47,6.40
2010,05,06,09,48,1.60
2010,05,06,09,49,4.80
2010,05,06,09,50,6.40
2010,05,06,09,51,6.40
2010,05,06,09,52,4.80
2010,05,06,09,53,6.40
2010,05,06,09,54,4.80
2010,05,06,09,55,6.40
2010,05,06,09,56,4.80
2010,05,06,09,57,6.40
2010,05,06,09,58,4.80
2010,05,06,09,59,3.20
2010,05,06,10,00,4.80
2010,05,06,10,01,4.80
2010,05,06,10,02,3.20
2010,05,06,10,03,3.20
2010,05,06,10,04,4.80
2010,05,06,10,05,4.80
2010,05,06,10,06,4.80
2010,05,06,10,07,3.20
2010,05,06,10,08,1.60
2010,05,06,10,09,1.60
2010,05,06,10,10,1.60
2010,05,06,10,12,3.20
2010,05,06,10,13,4.80
2010,05,06,10,14,4.80
2010,05,06,10,15,4.80
2010,05,06,10,16,1.60
2010,05,06,10,17,1.60
2010,05,06,10,18,4.80
2010,05,06,10,19,3.20
2010,05,06,10,20,4.80
2010,05,06,10,21,4.80
2010,05,06,10,24,3.20
2010,05,06,10,25,1.60
2010,05,06,10,26,3.20
2010,05,06,10,27,4.80
2010,05,06,10,28,3.20
2010,05,06,10,29,3.20
2010,05,06,10,30,3.20
2010,05,06,10,31,1.60
2010,05,06,10,32,1.60
2010,05,06,10,33,4.80
2010,05,06,10,34,3.20
2010,05,06,10,35,1.60
2010,05,06,10,36,1.60
2010,05,06,10,37,6.40
2010,05,06,10,38,4.80
2010,05,06,10,39,6.40
2010,05,06,10,40,8.10
2010,05,06,10,41,6.40
2010,05,06,10,42,6.40
2010,05,06,10,43,1.60
2010,05,06,10,44,3.20
2010,05,06,10,45,4.80
2010,05,06,10,46,6.40
2010,05,06,10,47,4.80
2010,05,06,10,48,4.80
2010,05,06,10,49,4.80
2010,05,06,10,50,3.20
2010,05,06,10,51,6.40
2010,05,06,10,52,8.10
2010,05,06,10,53,6.40
2010,05,06,10,54,9.60
2010,05,06,10,55,8.10
2010,05,06,10,56,4.80
2010,05,06,10,57,4.80
2010,05,06,10,58,8.10
2010,05,06,10,59,11.30
2010,05,06,11,00,8.10
2010,05,06,11,01,8.10
2010,05,06,11,02,11.30
2010,05,06,11,03,9.60
2010,05,06,11,04,8.10
2010,05,06,11,05,11.30
2010,05,06,11,06,8.10
2010,05,06,11,07,11.30
2010,05,06,11,08,6.40
2010,05,06,11,09,4.80
2010,05,06,11,10,3.20
2010,05,06,11,11,6.40
2010,05,06,11,12,8.10
2010,05,06,11,13,11.30
2010,05,06,11,14,16.10
2010,05,06,11,15,9.60
2010,05,06,11,16,9.60
2010,05,06,11,17,3.20
2010,05,06,11,18,4.80
2010,05,06,11,19,11.30
2010,05,06,11,20,6.40
2010,05,06,11,21,6.40
2010,05,06,11,22,3.20
2010,05,06,11,23,6.40
2010,05,06,11,24,4.80
2010,05,06,11,25,11.30
2010,05,06,11,26,9.60
2010,05,06,11,27,8.10
2010,05,06,11,28,6.40
2010,05,06,11,29,1.60
2010,05,06,11,30,3.20
2010,05,06,11,31,6.40
2010,05,06,11,32,6.40
2010,05,06,11,33,6.40
2010,05,06,11,34,6.40
2010,05,06,11,35,8.10
2010,05,06,11,36,8.10
2010,05,06,11,37,6.40
2010,05,06,11,38,6.40
2010,05,06,11,39,4.80
2010,05,06,11,40,4.80
2010,05,06,11,41,9.60
2010,05,06,11,42,9.60
2010,05,06,11,43,6.40
2010,05,06,11,44,4.80
2010,05,06,11,45,6.40
2010,05,06,11,46,9.60
2010,05,06,11,47,4.80
2010,05,06,11,48,6.40
2010,05,06,11,49,11.30
2010,05,06,11,50,3.20
2010,05,06,11,51,4.80
2010,05,06,11,52,6.40
2010,05,06,11,53,4.80
2010,05,06,11,54,6.40
2010,05,06,11,55,6.40
2010,05,06,11,56,6.40
2010,05,06,11,57,1.60
2010,05,06,11,58,3.20
2010,05,06,11,59,4.80
2010,05,06,12,00,6.40
2010,05,06,12,01,4.80
2010,05,06,12,02,6.40
2010,05,06,12,03,9.60
2010,05,06,12,04,8.10
2010,05,06,12,05,8.10
2010,05,06,12,06,8.10
2010,05,06,12,07,6.40
2010,05,06,12,08,9.60
2010,05,06,12,09,11.30
2010,05,06,12,10,8.10
2010,05,06,12,11,6.40
2010,05,06,12,12,6.40
2010,05,06,12,13,11.30
2010,05,06,12,14,9.60
2010,05,06,12,15,11.30
2010,05,06,12,16,14.50
2010,05,06,12,17,6.40
2010,05,06,12,18,14.50
2010,05,06,12,19,11.30
2010,05,06,12,20,6.40
2010,05,06,12,21,4.80
2010,05,06,12,22,9.60
2010,05,06,12,23,14.50
2010,05,06,12,24,8.10
2010,05,06,12,25,8.10
2010,05,06,12,26,9.60
2010,05,06,12,27,14.50
2010,05,06,12,28,16.10
2010,05,06,12,29,12.90
2010,05,06,12,30,14.50
2010,05,06,12,31,8.10
2010,05,06,12,32,11.30
2010,05,06,12,33,14.50
2010,05,06,12,34,11.30
2010,05,06,12,35,14.50
2010,05,06,12,36,11.30
2010,05,06,12,37,9.60
2010,05,06,12,38,8.10
2010,05,06,12,39,8.10
2010,05,06,12,40,9.60
2010,05,06,12,41,4.80
2010,05,06,12,42,4.80
2010,05,06,12,43,4.80
2010,05,06,12,44,9.60
2010,05,06,12,45,11.30
2010,05,06,12,46,1.60
2010,05,06,12,47,9.60
2010,05,06,12,48,8.10
2010,05,06,12,49,6.40
2010,05,06,12,50,6.40
2010,05,06,12,51,3.20
2010,05,06,12,52,8.10
2010,05,06,12,53,6.40
2010,05,06,12,54,9.60
2010,05,06,12,55,6.40
2010,05,06,12,56,3.20
2010,05,06,12,57,8.10
2010,05,06,12,58,3.20
2010,05,06,12,59,8.10
2010,05,06,13,00,6.40
2010,05,06,13,01,3.20
2010,05,06,13,02,6.40
2010,05,06,13,03,1.60
2010,05,06,13,04,4.80
2010,05,06,13,05,4.80
2010,05,06,13,06,3.20
2010,05,06,13,07,6.40
2010,05,06,13,08,4.80
2010,05,06,13,09,6.40
2010,05,06,13,10,4.80
2010,05,06,13,11,6.40
2010,05,06,13,12,3.20
2010,05,06,13,13,3.20
2010,05,06,13,14,1.60
2010,05,06,13,15,3.20
2010,05,06,13,16,1.60
2010,05,06,13,18,6.40
2010,05,06,13,19,3.20
2010,05,06,13,20,6.40
2010,05,06,13,21,8.10
2010,05,06,13,22,9.60
2010,05,06,13,23,9.60
2010,05,06,13,24,4.80
2010,05,06,13,25,3.20
2010,05,06,13,26,1.60
2010,05,06,13,27,9.60
2010,05,06,13,28,8.10
2010,05,06,13,29,6.40
2010,05,06,13,30,4.80
2010,05,06,13,31,6.40
2010,05,06,13,32,4.80
2010,05,06,13,33,1.60
2010,05,06,13,34,6.40
2010,05,06,13,35,8.10
2010,05,06,13,36,6.40
2010,05,06,13,37,6.40
2010,05,06,13,38,6.40
2010,05,06,13,39,4.80
2010,05,06,13,40,6.40
2010,05,06,13,41,4.80
2010,05,06,13,42,6.40
2010,05,06,13,43,6.40
2010,05,06,13,44,8.10
2010,05,06,13,45,4.80
2010,05,06,13,46,3.20
2010,05,06,13,47,4.80
2010,05,06,13,48,3.20
2010,05,06,13,49,3.20
2010,05,06,13,50,6.40
2010,05,06,13,51,9.60
2010,05,06,13,52,6.40
2010,05,06,13,53,11.30
2010,05,06,13,54,9.60
2010,05,06,13,55,9.60
2010,05,06,13,56,8.10
2010,05,06,13,57,8.10
2010,05,06,13,58,9.60
2010,05,06,13,59,8.10
2010,05,06,14,00,4.80
2010,05,06,14,01,6.40
2010,05,06,14,02,8.10
2010,05,06,14,03,9.60
2010,05,06,14,04,9.60
2010,05,06,14,05,6.40
2010,05,06,14,06,4.80
2010,05,06,14,07,1.60
2010,05,06,14,08,6.40
2010,05,06,14,09,8.10
2010,05,06,14,10,8.10
2010,05,06,14,11,3.20
2010,05,06,14,12,4.80
2010,05,06,14,13,6.40
2010,05,06,14,14,6.40
2010,05,06,14,15,8.10
2010,05,06,14,16,4.80
2010,05,06,14,17,8.10
2010,05,06,14,18,8.10
2010,05,06,14,19,6.40
2010,05,06,14,20,8.10
2010,05,06,14,21,4.80
2010,05,06,14,22,3.20
2010,05,06,14,23,4.80
2010,05,06,14,24,4.80
2010,05,06,14,25,1.60
2010,05,06,14,26,4.80
2010,05,06,14,27,6.40
2010,05,06,14,28,8.10
2010,05,06,14,29,6.40
2010,05,06,14,30,3.20
2010,05,06,14,31,8.10
2010,05,06,14,32,6.40
2010,05,06,14,33,6.40
2010,05,06,14,34,1.60
2010,05,06,14,35,4.80
2010,05,06,14,36,3.20
2010,05,06,14,37,6.40
2010,05,06,14,38,1.60
2010,05,06,14,39,1.60
2010,05,06,14,40,4.80
2010,05,06,14,41,4.80
2010,05,06,14,42,3.20
2010,05,06,14,43,3.20
2010,05,06,14,44,3.20
2010,05,06,14,45,3.20
2010,05,06,14,46,3.20
2010,05,06,14,47,3.20
2010,05,06,14,48,3.20
2010,05,06,14,49,1.60
2010,05,06,14,50,1.60
2010,05,06,14,51,1.60
2010,05,06,14,53,1.60
2010,05,06,14,54,3.20
2010,05,06,14,55,3.20
2010,05,06,14,57,3.20
2010,05,06,14,58,1.60
2010,05,06,14,59,3.20
2010,05,06,15,00,3.20
2010,05,06,15,01,4.80
2010,05,06,15,02,1.60
2010,05,06,15,03,6.40
2010,05,06,15,04,6.40
2010,05,06,15,05,1.60
2010,05,06,15,06,3.20
2010,05,06,15,07,6.40
2010,05,06,15,08,6.40
2010,05,06,15,09,3.20
2010,05,06,15,10,4.80
2010,05,06,15,11,4.80
2010,05,06,15,12,4.80
2010,05,06,15,13,4.80
2010,05,06,15,14,3.20
2010,05,06,15,15,1.60
2010,05,06,15,16,1.60
2010,05,06,15,17,1.60
2010,05,06,15,18,8.10
2010,05,06,15,19,4.80
2010,05,06,15,20,6.40
2010,05,06,15,21,4.80
2010,05,06,15,22,3.20
2010,05,06,15,23,4.80
2010,05,06,15,24,8.10
2010,05,06,15,25,11.30
2010,05,06,15,26,8.10
2010,05,06,15,27,14.50
2010,05,06,15,28,9.60
2010,05,06,15,29,8.10
2010,05,06,15,30,6.40
2010,05,06,15,31,4.80
2010,05,06,15,32,11.30
2010,05,06,15,33,11.30
2010,05,06,15,34,9.60
2010,05,06,15,35,12.90
2010,05,06,15,36,9.60
2010,05,06,15,37,9.60
2010,05,06,15,38,9.60
2010,05,06,15,39,8.10
2010,05,06,15,40,9.60
2010,05,06,15,41,8.10
2010,05,06,15,42,4.80
2010,05,06,15,43,11.30
2010,05,06,15,44,12.90
2010,05,06,15,45,4.80
2010,05,06,15,46,6.40
2010,05,06,15,47,6.40
2010,05,06,15,48,6.40
2010,05,06,15,49,8.10
2010,05,06,15,50,9.60
2010,05,06,15,51,6.40
2010,05,06,15,52,8.10
2010,05,06,15,53,16.10
2010,05,06,15,54,9.60
2010,05,06,15,55,12.90
2010,05,06,15,56,9.60
2010,05,06,15,57,11.30
2010,05,06,15,58,8.10
2010,05,06,15,59,6.40
2010,05,06,16,00,9.60
2010,05,06,16,01,6.40
2010,05,06,16,02,3.20
2010,05,06,16,03,6.40
2010,05,06,16,04,11.30
2010,05,06,16,05,8.10
2010,05,06,16,06,8.10
2010,05,06,16,07,14.50
2010,05,06,16,08,6.40
2010,05,06,16,09,11.30
2010,05,06,16,10,4.80
2010,05,06,16,11,8.10
2010,05,06,16,12,8.10
2010,05,06,16,13,9.60
2010,05,06,16,14,9.60
2010,05,06,16,15,9.60
2010,05,06,16,16,9.60
2010,05,06,16,17,9.60
2010,05,06,16,18,16.10
2010,05,06,16,19,8.10
2010,05,06,16,20,8.10
2010,05,06,16,21,4.80
2010,05,06,16,22,9.60
2010,05,06,16,23,14.50
2010,05,06,16,24,6.40
2010,05,06,16,25,12.90
2010,05,06,16,26,9.60
2010,05,06,16,27,8.10
2010,05,06,16,28,4.80
2010,05,06,16,29,9.60
2010,05,06,16,30,6.40
2010,05,06,16,31,9.60
2010,05,06,16,32,8.10
2010,05,06,16,33,12.90
2010,05,06,16,34,12.90
2010,05,06,16,35,14.50
2010,05,06,16,36,11.30
2010,05,06,16,37,16.10
2010,05,06,16,38,14.50
2010,05,06,16,39,8.10
2010,05,06,16,40,11.30
2010,05,06,16,41,20.90
2010,05,06,16,42,17.70
2010,05,06,16,43,11.30
2010,05,06,16,44,11.30
2010,05,06,16,45,11.30
2010,05,06,16,46,11.30
2010,05,06,16,47,9.60
2010,05,06,16,48,9.60
2010,05,06,16,49,9.60
2010,05,06,16,50,8.10
2010,05,06,16,51,4.80
2010,05,06,16,52,4.80
2010,05,06,16,53,9.60
2010,05,06,16,54,9.60
2010,05,06,16,55,8.10
2010,05,06,16,56,11.30
2010,05,06,16,57,14.50
2010,05,06,16,58,9.60
2010,05,06,16,59,8.10
2010,05,06,17,00,6.40
2010,05,06,17,01,3.20
2010,05,06,17,02,3.20
2010,05,06,17,03,4.80
2010,05,06,17,04,4.80
2010,05,06,17,05,4.80
2010,05,06,17,06,8.10
2010,05,06,17,07,3.20
2010,05,06,17,08,6.40
2010,05,06,17,09,8.10
2010,05,06,17,10,9.60
2010,05,06,17,11,9.60
2010,05,06,17,12,6.40
2010,05,06,17,13,4.80
2010,05,06,17,14,9.60
2010,05,06,17,15,8.10
2010,05,06,17,16,6.40
2010,05,06,17,17,3.20
2010,05,06,17,18,6.40
2010,05,06,17,19,8.10
2010,05,06,17,20,1.60
2010,05,06,17,21,1.60
2010,05,06,17,22,3.20
2010,05,06,17,23,4.80
2010,05,06,17,24,4.80
2010,05,06,17,25,4.80
2010,05,06,17,26,8.10
2010,05,06,17,27,4.80
2010,05,06,17,28,6.40
2010,05,06,17,29,3.20
2010,05,06,17,30,6.40
2010,05,06,17,31,4.80
2010,05,06,17,32,4.80
2010,05,06,17,33,6.40
2010,05,06,17,34,9.60
2010,05,06,17,35,6.40
2010,05,06,17,36,3.20
2010,05,06,17,37,3.20
2010,05,06,17,38,6.40
2010,05,06,17,39,4.80
2010,05,06,17,40,6.40
2010,05,06,17,41,3.20
2010,05,06,17,42,3.20
2010,05,06,17,43,1.60
2010,05,06,17,44,1.60
2010,05,06,17,45,6.40
2010,05,06,17,46,4.80
2010,05,06,17,47,3.20
2010,05,06,17,48,3.20
2010,05,06,17,49,6.40
2010,05,06,17,50,1.60
2010,05,06,17,51,3.20
2010,05,06,17,53,1.60
2010,05,06,17,54,3.20
2010,05,06,17,55,3.20
2010,05,06,17,56,4.80
2010,05,06,17,57,4.80
2010,05,06,17,58,3.20
2010,05,06,17,59,4.80
2010,05,06,18,00,3.20
2010,05,06,18,01,1.60
2010,05,06,18,02,1.60
2010,05,06,18,03,4.80
2010,05,06,18,04,1.60
2010,05,06,18,05,3.20
2010,05,06,18,06,1.60
2010,05,06,18,07,1.60
2010,05,06,18,08,3.20
2010,05,06,18,09,1.60
2010,05,06,18,10,4.80
2010,05,06,18,11,8.10
2010,05,06,18,12,6.40
2010,05,06,18,13,9.60
2010,05,06,18,14,6.40
2010,05,06,18,15,1.60
2010,05,06,18,16,3.20
2010,05,06,18,17,1.60
2010,05,06,18,18,4.80
2010,05,06,18,19,9.60
2010,05,06,18,20,8.10
2010,05,06,18,21,4.80
2010,05,06,18,22,6.40
2010,05,06,18,23,8.10
2010,05,06,18,24,6.40
2010,05,06,18,25,3.20
2010,05,06,18,26,4.80
2010,05,06,18,27,4.80
2010,05,06,18,28,1.60
2010,05,06,18,29,1.60
2010,05,06,18,30,8.10
2010,05,06,18,31,6.40
2010,05,06,18,32,4.80
2010,05,06,18,33,4.80
2010,05,06,18,34,14.50
2010,05,06,18,35,4.80
2010,05,06,18,36,4.80
2010,05,06,18,37,4.80
2010,05,06,18,38,3.20
2010,05,06,18,39,6.40
2010,05,06,18,40,4.80
2010,05,06,18,41,4.80
2010,05,06,18,42,3.20
2010,05,06,18,43,3.20
2010,05,06,18,44,9.60
2010,05,06,18,45,9.60
2010,05,06,18,46,4.80
2010,05,06,18,47,4.80
2010,05,06,18,48,3.20
2010,05,06,18,49,3.20
2010,05,06,18,50,3.20
2010,05,06,18,51,3.20
2010,05,06,18,52,4.80
2010,05,06,18,53,1.60
2010,05,06,18,54,11.30
2010,05,06,18,55,12.90
2010,05,06,18,56,9.60
2010,05,06,18,57,14.50
2010,05,06,18,58,11.30
2010,05,06,18,59,17.70
2010,05,06,19,00,16.10
2010,05,06,19,01,14.50
2010,05,06,19,02,6.40
2010,05,06,19,03,6.40
2010,05,06,19,04,4.80
2010,05,06,19,05,11.30
2010,05,06,19,06,4.80
2010,05,06,19,07,3.20
2010,05,06,19,08,8.10
2010,05,06,19,09,3.20
2010,05,06,19,10,6.40
2010,05,06,19,11,6.40
2010,05,06,19,12,8.10
2010,05,06,19,13,8.10
2010,05,06,19,14,14.50
2010,05,06,19,15,11.30
2010,05,06,19,16,8.10
2010,05,06,19,17,11.30
2010,05,06,19,18,17.70
2010,05,06,19,19,9.60
2010,05,06,19,20,6.40
2010,05,06,19,21,6.40
2010,05,06,19,22,11.30
2010,05,06,19,23,11.30
2010,05,06,19,24,11.30
2010,05,06,19,25,8.10
2010,05,06,19,26,1.60
2010,05,06,19,27,1.60
2010,05,06,19,28,8.10
2010,05,06,19,29,9.60
2010,05,06,19,30,4.80
2010,05,06,19,31,3.20
2010,05,06,19,32,4.80
2010,05,06,19,33,1.60
2010,05,06,19,34,8.10
2010,05,06,19,35,4.80
2010,05,06,19,36,3.20
2010,05,06,19,37,1.60
2010,05,06,19,38,11.30
2010,05,06,19,39,8.10
2010,05,06,19,40,1.60
2010,05,06,19,41,3.20
2010,05,06,19,42,1.60
2010,05,06,19,45,1.60
2010,05,06,19,46,1.60
2010,05,06,19,48,3.20
2010,05,06,19,49,9.60
2010,05,06,19,50,6.40
2010,05,06,19,51,8.10
2010,05,06,19,52,4.80
2010,05,06,19,53,1.60
2010,05,06,19,54,8.10
2010,05,06,19,56,3.20
2010,05,06,19,57,4.80
2010,05,06,19,58,1.60
2010,05,06,19,59,4.80
2010,05,06,20,00,4.80
2010,05,06,20,01,1.60
2010,05,06,20,04,1.60
2010,05,06,20,05,6.40
2010,05,06,20,06,3.20
2010,05,06,20,07,1.60
2010,05,06,20,08,9.60
2010,05,06,20,09,8.10
2010,05,06,20,10,1.60
2010,05,06,20,12,1.60
2010,05,06,20,13,3.20
2010,05,06,20,14,1.60
2010,05,06,20,16,1.60
2010,05,06,20,18,3.20
2010,05,06,20,21,3.20
2010,05,06,20,22,1.60
2010,05,06,20,25,4.80
2010,05,06,20,26,1.60
2010,05,06,20,27,1.60
2010,05,06,20,28,4.80
2010,05,06,20,29,3.20
2010,05,06,20,32,4.80
2010,05,06,20,35,4.80
2010,05,06,20,36,1.60
2010,05,06,20,41,1.60
2010,05,06,20,47,4.80
2010,05,06,20,50,1.60
2010,05,06,20,56,1.60
2010,05,06,21,05,1.60
2010,05,06,21,06,1.60
2010,05,06,21,07,1.60
2010,05,06,21,09,4.80
2010,05,06,21,10,1.60
2010,05,06,21,14,1.60
2010,05,06,21,15,1.60
2010,05,06,21,17,1.60
2010,05,06,21,19,1.60
2010,05,06,21,24,1.60
2010,05,06,21,25,1.60
2010,05,06,21,26,3.20
2010,05,06,21,28,1.60
2010,05,06,21,30,1.60
2010,05,06,21,31,1.60
2010,05,06,21,32,1.60
2010,05,06,21,33,1.60
2010,05,06,21,35,1.60
2010,05,06,21,36,1.60
2010,05,06,22,07,1.60
2010,05,06,23,07,1.60
2010,05,06,23,08,3.20
2010,05,06,23,09,1.60
2010,05,06,23,13,1.60
2010,05,06,23,32,1.60
2010,05,06,23,34,3.20
2010,05,06,23,35,3.20
2010,05,06,23,36,3.20
2010,05,06,23,37,1.60
2010,05,06,23,38,1.60
2010,05,06,23,54,1.60
2010,05,06,23,56,1.60
2010,05,06,23,57,1.60
2010,05,06,23,58,1.60
